TimeMST,TemperatureF,Dew PointF,Humidity,Sea Level PressureIn,VisibilityMPH,Wind Direction,Wind SpeedMPH,Gust SpeedMPH,PrecipitationIn,Events,Conditions,WindDirDegrees,DateUTC
12:53 AM,89.1,66.9,48,29.78,10.0,SE,4.6,-,N/A,,Clear,130,2013-07-25 07:53:00
1:53 AM,86.0,68.0,55,29.79,10.0,SE,5.8,-,N/A,,Clear,130,2013-07-25 08:53:00
2:53 AM,87.1,66.0,49,29.80,10.0,Calm,Calm,-,N/A,,Clear,0,2013-07-25 09:53:00
3:53 AM,87.1,66.9,51,29.81,10.0,SE,5.8,-,N/A,,Mostly Cloudy,130,2013-07-25 10:53:00
4:53 AM,86.0,66.9,53,29.83,10.0,SE,6.9,-,N/A,,Overcast,140,2013-07-25 11:53:00
5:53 AM,86.0,66.9,53,29.86,10.0,SSE,4.6,-,0.00,Rain,Light Rain,150,2013-07-25 12:53:00
6:11 AM,86.0,68.0,55,29.96,10.0,East,4.6,-,0.00,Thunderstorm,Overcast,100,2013-07-25 13:11:00
6:36 AM,82.4,69.8,66,29.95,6.0,South,3.5,-,0.01,Rain,Rain,180,2013-07-25 13:36:00
6:53 AM,81.0,71.1,72,29.87,10.0,SW,6.9,-,0.01,Thunderstorm,Scattered Clouds,220,2013-07-25 13:53:00
7:15 AM,80.6,71.6,74,29.94,10.0,South,6.9,-,0.01,Rain,Light Rain,190,2013-07-25 14:15:00
7:53 AM,79.0,72.0,79,29.89,10.0,ESE,4.6,-,0.03,Rain,Light Rain,120,2013-07-25 14:53:00
8:53 AM,81.0,71.1,72,29.92,10.0,East,5.8,-,0.00,,Clear,100,2013-07-25 15:53:00
9:53 AM,84.0,70.0,63,29.92,10.0,Calm,Calm,-,N/A,,Clear,0,2013-07-25 16:53:00
10:53 AM,88.0,68.0,51,29.92,10.0,Calm,Calm,-,N/A,,Clear,0,2013-07-25 17:53:00
11:53 AM,91.0,66.9,45,29.91,10.0,South,4.6,-,N/A,,Clear,190,2013-07-25 18:53:00
12:53 PM,91.9,66.0,42,29.88,10.0,WSW,4.6,-,N/A,,Clear,240,2013-07-25 19:53:00
1:53 PM,95.0,64.0,36,29.86,10.0,Calm,Calm,-,N/A,,Clear,0,2013-07-25 20:53:00
2:53 PM,96.1,63.0,33,29.84,10.0,SSE,4.6,-,N/A,,Clear,160,2013-07-25 21:53:00
3:53 PM,98.1,62.1,30,29.83,10.0,SE,5.8,-,N/A,,Clear,130,2013-07-25 22:53:00
4:53 PM,98.1,63.0,31,29.82,10.0,Variable,4.6,-,N/A,,Clear,0,2013-07-25 23:53:00
5:53 PM,98.1,63.0,31,29.83,10.0,SSW,5.8,-,N/A,,Clear,210,2013-07-26 00:53:00
6:53 PM,91.0,71.1,52,29.86,10.0,SE,9.2,-,N/A,,Clear,140,2013-07-26 01:53:00
7:53 PM,89.1,71.1,55,29.87,10.0,SE,6.9,-,N/A,,Clear,140,2013-07-26 02:53:00
8:53 PM,89.1,71.1,55,29.89,10.0,ESE,5.8,-,N/A,,Clear,120,2013-07-26 03:53:00
9:53 PM,89.1,70.0,53,29.91,10.0,ESE,4.6,-,N/A,,Clear,110,2013-07-26 04:53:00
10:53 PM,88.0,69.1,53,29.90,10.0,ESE,5.8,-,N/A,,Clear,120,2013-07-26 05:53:00
11:53 PM,88.0,69.1,53,29.89,10.0,Calm,Calm,-,N/A,,Clear,0,2013-07-26 06:53:00